Simultaneous Nadir Overpasses (SNOs) Predictions

Prediction of SNOs between FY3D and NOAA-19 Satellite Orbit:

Table of predicted SNOs for the next 14.0 days since TLE Epoch: 1/11/2020
Index Date (FY3D) Time (FY3D) Lat,Lon (FY3D) SZA (FY3D ) Date (NOAA-19) Time (NOAA-19) Lat,Lon (NOAA-19) SZA (NOAA-19 ) Distance(km) Time Diff (sec)
1 01/16/2020 05:48:12 79.71, 57.92 102.70 01/16/2020 05:47:06 79.70, 58.04 102.71 2.50 66
2 01/16/2020 06:38:56 -79.72,-134.83 77.30 01/16/2020 06:38:03 -79.69,-134.82 77.30 3.08 53
3 01/16/2020 07:29:41 79.70, 32.58 102.68 01/16/2020 07:29:07 79.69, 32.44 102.70 3.17 34
4 01/16/2020 08:20:25 -79.71,-160.17 77.32 01/16/2020 08:20:03 -79.71,-160.11 77.32 1.30 22
5 01/16/2020 09:11:10 79.70, 7.24 102.66 01/16/2020 09:11:07 79.71, 7.14 102.68 2.01 3
6 01/16/2020 10:01:54 -79.71, 174.49 77.34 01/16/2020 10:02:03 -79.72, 174.59 77.34 2.72 9
7 01/16/2020 10:52:39 79.70, -18.10 102.64 01/16/2020 10:53:07 79.73, -18.15 102.66 3.34 28
8 01/16/2020 11:43:23 -79.71, 149.15 77.36 01/16/2020 11:44:04 -79.72, 149.00 77.35 3.14 41
9 01/16/2020 12:34:09 79.73, -43.73 102.68 01/16/2020 12:35:08 79.72, -43.75 102.65 0.94 59




NCC Satellite Simultaneous Nadir Overpasses (SNOs) Prediction Service
